Snowfall_Accumulation
1.1 3.7 6.9 3.5 2.7 3.3 3.9 4.8 4.0 1.6 0.5 1.4 1.8 2.0 1.6 0.9 0.8 0.9 0.6 0.4 0.4 0.4 0.2 0.1 0.0 0.0 0.0 0.0 0.0 0.0 0.0 0.0 0.0 0.0 0.0 0.0 0.0 0.0 0.0 0.1 0.1 0.3 0.4 0.7
4.6 6.0 1.7 0.5 1.1 2.7 4.3 5.8 4.0 1.7 0.7 1.6 2.2 2.2 1.5 1.0 1.2 1.1 0.6 0.8 0.7 0.6 0.6 0.4 0.2 0.1 0.0 0.0 0.0 0.0 0.0 0.0 0.0 0.0 0.0 0.0 0.0 0.0 0.0 0.0 0.1 0.2 0.4 0.8
6.5 2.6 0.7 1.9 3.0 4.7 5.0 4.8 3.8 3.9 1.8 1.7 3.2 3.3 1.6 1.0 1.0 1.0 0.7 0.7 0.7 0.7 0.7 0.5 0.2 0.2 0.1 0.1 0.0 0.0 0.0 0.0 0.0 0.0 0.0 0.0 0.0 0.0 0.0 0.0 0.0 0.1 0.2 0.8
3.7 0.8 1.0 2.7 3.5 4.6 5.6 1.7 2.6 3.8 5.5 6.3 5.2 8.3 2.5 1.6 1.3 1.2 1.2 1.1 0.8 0.5 0.5 0.4 0.5 0.3 0.3 0.2 0.1 0.0 0.1 0.0 0.0 0.0 0.0 0.0 0.0 0.0 0.0 0.0 0.0 0.1 0.1 0.7
4.5 1.1 1.6 3.7 2.5 2.7 4.0 1.2 2.1 4.2 7.0 7.8 4.3 8.0 3.7 1.6 2.0 1.8 1.5 1.5 0.8 0.7 1.0 0.8 0.9 0.8 0.5 0.6 0.2 0.1 0.1 0.1 0.1 0.0 0.0 0.0 0.0 0.0 0.0 0.0 0.0 0.1 0.1 0.2
2.3 0.8 1.3 1.9 0.7 1.1 1.8 2.0 2.7 4.6 9.4 15.9 4.6 6.3 5.5 4.0 4.2 2.6 1.4 1.6 1.1 0.9 1.1 1.2 1.0 1.0 0.9 0.7 0.7 0.3 0.2 0.2 0.1 0.1 0.1 0.2 0.2 0.2 0.1 0.1 0.0 0.1 0.1 0.2
6.0 2.9 1.5 1.1 2.9 2.7 4.1 11.0 23.2 24.2 22.2 11.9 2.4 4.0 5.0 3.3 2.8 2.5 2.2 2.1 1.5 1.1 1.1 1.3 1.3 0.8 1.1 0.9 0.6 0.8 0.3 0.8 0.8 0.4 0.5 0.5 0.2 0.2 0.3 0.3 0.2 0.1 0.2 0.2
11.3 10.6 2.8 1.7 3.1 5.1 4.8 8.1 17.6 17.4 11.0 5.1 3.1 4.6 4.1 2.4 1.8 1.6 1.4 1.3 1.3 1.2 0.9 1.0 1.3 1.3 0.9 0.8 0.6 0.8 0.7 0.7 0.8 0.8 0.7 0.6 0.2 0.3 0.3 0.2 0.3 0.3 0.1 0.1
11.2 8.0 1.5 0.9 1.3 3.3 6.7 7.6 6.4 12.3 9.0 6.4 5.0 3.7 3.1 1.6 1.5 1.3 1.2 1.1 1.3 1.3 1.2 1.1 1.2 1.2 0.9 0.8 0.7 0.7 0.7 0.6 0.6 0.7 0.7 0.6 0.5 0.4 0.3 0.3 0.3 0.3 0.1 0.1
11.3 10.0 2.6 0.9 1.5 2.0 3.8 5.2 9.2 16.9 14.6 8.6 5.1 4.3 5.2 3.5 3.0 2.2 2.0 1.9 1.4 1.4 1.4 1.6 1.0 1.0 0.9 0.8 0.8 0.9 1.0 0.9 0.6 0.6 0.6 0.6 1.0 0.5 0.4 0.4 0.4 0.4 0.4 0.2
8.7 12.4 7.3 3.2 5.1 5.1 5.0 7.1 10.6 14.3 12.2 10.9 7.2 6.0 4.8 4.4 3.4 2.8 2.6 2.2 1.6 1.6 1.6 1.6 1.3 0.9 0.8 0.8 0.9 0.9 1.1 1.1 0.8 0.7 0.6 1.1 1.0 0.5 0.5 0.5 0.5 0.5 0.5 0.4
7.9 13.2 10.7 4.7 2.1 2.3 4.3 6.6 10.0 16.7 12.8 8.7 8.2 6.6 3.4 2.7 2.8 2.6 2.4 2.3 1.9 1.7 1.5 1.4 1.4 0.9 0.7 0.8 0.9 1.0 1.2 1.2 1.1 0.7 0.6 0.5 0.5 0.5 0.4 0.5 0.6 0.6 0.6 0.5
13.8 20.2 17.6 7.6 4.1 3.4 5.7 6.0 7.3 10.5 12.9 9.9 8.8 6.3 2.4 1.5 1.5 1.7 1.7 1.9 1.9 1.5 1.4 1.6 1.5 1.1 0.9 1.1 0.9 1.0 1.1 1.4 1.1 1.2 0.9 0.5 0.4 0.5 0.6 0.4 0.5 0.5 0.5 0.5
11.4 21.8 15.0 11.5 8.5 8.4 8.1 6.0 5.9 10.7 15.4 9.4 5.4 4.5 2.8 2.1 1.7 1.6 1.5 1.5 2.0 2.2 1.8 1.8 1.8 1.4 1.0 1.0 1.2 1.2 1.0 1.3 1.0 1.0 1.1 0.9 0.9 0.6 0.6 0.6 0.4 0.4 0.4 0.4
10.6 17.6 8.1 4.7 3.4 4.8 5.6 5.0 4.9 7.7 7.9 7.9 4.4 3.8 3.7 3.1 2.7 2.2 1.9 1.7 1.8 1.9 1.9 1.9 2.0 2.0 1.5 1.2 0.9 0.9 1.1 1.3 1.1 1.1 1.1 1.2 1.2 1.2 0.7 0.5 0.4 0.5 0.4 0.4
11.7 15.1 7.5 4.4 2.8 3.5 4.4 3.6 3.6 4.4 4.5 4.4 3.4 3.5 3.0 2.6 2.2 2.2 2.1 2.0 2.1 2.3 1.9 1.8 2.0 2.4 2.1 1.4 1.2 1.0 1.1 1.2 1.2 1.3 1.2 1.2 1.4 1.3 1.3 0.8 0.4 0.5 0.6 0.7
13.6 14.7 13.2 7.0 3.1 5.6 6.9 4.3 4.3 4.5 4.3 4.9 5.6 4.6 2.9 2.7 2.6 3.1 3.2 3.1 3.0 2.9 2.3 1.9 2.0 2.3 1.9 1.6 1.4 1.5 1.2 1.1 1.1 1.2 1.4 1.4 1.3 1.3 1.3 1.4 1.2 0.8 0.9 1.0
11.6 14.4 18.7 12.3 8.5 11.8 4.8 2.8 3.2 3.9 4.4 4.8 4.6 3.7 3.5 3.6 3.1 2.9 3.1 3.8 3.7 3.1 2.7 2.4 2.2 1.8 1.5 1.3 1.4 1.3 1.2 1.2 1.2 1.1 1.4 1.3 1.4 1.4 1.4 1.4 1.6 1.3 1.3 1.2
5.3 13.7 21.6 18.8 13.3 6.5 3.0 2.5 3.5 4.8 5.4 4.4 3.9 3.5 3.0 2.5 2.1 2.3 2.1 2.7 3.5 3.5 3.3 2.9 2.3 1.6 1.2 1.0 1.3 1.3 1.0 0.9 0.9 1.1 1.4 1.4 1.5 1.4 1.2 1.4 1.8 1.6 1.6 1.4
5.4 11.5 22.8 21.2 16.5 7.7 4.3 2.4 2.0 3.5 6.7 3.8 3.5 3.8 3.2 3.0 4.3 3.4 2.4 2.7 3.0 2.7 3.0 3.0 2.6 1.9 1.2 0.7 0.9 1.1 1.1 0.9 1.2 1.4 1.3 1.4 1.4 1.5 1.4 1.6 2.1 1.9 1.8 1.3
11.1 18.1 21.9 17.6 14.6 5.9 3.8 2.4 1.8 6.4 7.6 3.4 3.3 3.6 3.7 4.4 5.3 4.0 3.0 3.1 3.1 2.8 2.9 2.8 2.5 2.1 1.5 0.8 0.8 1.1 1.3 1.4 1.3 1.3 1.3 1.2 1.4 1.3 1.5 2.0 2.3 1.9 1.6 1.9
8.2 12.5 13.4 13.0 15.2 8.0 3.4 3.8 6.5 7.2 3.5 2.6 2.5 2.6 3.0 2.8 2.6 2.6 2.6 2.8 2.4 2.6 2.4 2.1 2.4 2.2 1.6 1.0 1.0 1.1 1.1 1.5 1.2 1.2 1.4 1.6 1.6 1.3 1.2 1.8 2.3 2.1 2.3 2.1
6.8 8.6 9.4 9.1 7.2 4.4 3.1 4.0 3.9 3.2 3.3 2.5 2.4 2.1 2.2 2.4 2.4 2.6 2.7 2.6 2.4 2.3 2.4 1.9 2.2 2.2 1.7 1.2 1.2 1.7 1.3 1.4 1.7 1.7 1.7 1.8 1.7 1.7 1.5 1.8 2.0 1.9 2.0 2.4
4.1 3.9 6.6 6.5 3.8 2.9 2.8 2.8 2.7 2.5 2.7 2.1 2.2 1.9 1.8 2.1 2.2 2.5 2.5 2.4 2.4 2.1 2.2 2.2 2.2 2.0 1.8 1.7 1.2 1.5 1.5 1.7 1.8 1.8 1.8 1.9 1.9 2.0 1.9 1.9 2.0 2.3 2.5 3.7
3.8 4.6 6.1 5.6 3.1 2.6 2.4 2.4 2.3 2.0 1.8 1.7 1.8 1.8 1.8 2.0 2.1 2.1 2.4 2.4 2.4 2.6 2.5 2.4 2.5 2.3 2.1 2.0 1.7 1.5 1.7 1.8 2.0 1.9 2.1 2.3 2.3 2.3 2.1 2.1 2.0 2.5 2.7 4.0
3.1 4.5 6.6 5.9 3.4 4.4 3.3 2.4 2.1 2.2 2.1 2.0 2.0 2.0 1.7 2.0 2.4 2.4 2.5 2.5 2.7 2.5 2.7 2.5 2.3 2.7 2.3 2.3 2.0 1.9 1.9 2.1 2.2 2.3 2.1 2.3 2.5 2.1 2.0 2.0 2.2 1.8 1.9 2.2